This is the latest recevied weather packets stored in our database for station/object SR8NGO-1. If no packets are shown the sender has not sent any weather packets the latest 1 day(s).
| Time | Temp. | Humidity | Pressure | Rain* | Wind** | Luminosity | Snow |
|---|---|---|---|---|---|---|---|
| 1778000687 | 22.78° C | 39% | 997.4 hPa | 137.92 mm | 1.79 m/s, 166° | - | - |
| 1778000447 | 25° C | 38% | 997.4 hPa | 137.92 mm | 3.58 m/s, 184° | - | - |
| 1778000207 | 26.11° C | 38% | 997.4 hPa | 137.92 mm | 3.13 m/s, 184° | - | - |
| 1777999967 | 26.11° C | 38% | 997.4 hPa | 137.92 mm | 4.02 m/s, 177° | - | - |
| 1777999727 | 26.11° C | 38% | 997.4 hPa | 137.92 mm | 2.68 m/s, 183° | - | - |
| 1777999487 | 23.89° C | 38% | 997.4 hPa | 137.92 mm | 2.68 m/s, 184° | - | - |
| 1777999247 | 23.89° C | 38% | 997.5 hPa | 137.92 mm | 3.58 m/s, 184° | - | - |
| 1777999007 | 25° C | 38% | 997.5 hPa | 137.92 mm | 2.68 m/s, 183° | - | - |
| 1777998767 | 26.11° C | 38% | 997.5 hPa | 137.92 mm | 3.13 m/s, 161° | - | - |
| 1777998527 | 23.89° C | 38% | 997.5 hPa | 137.92 mm | 4.92 m/s, 189° | - | - |
| 1777998287 | 23.89° C | 37% | 997.5 hPa | 137.92 mm | 4.02 m/s, 172° | - | - |
| 1777998047 | 23.89° C | 37% | 997.5 hPa | 137.92 mm | 2.68 m/s, 177° | - | - |
| 1777997567 | 25° C | 36% | 997.5 hPa | 137.92 mm | 2.68 m/s, 183° | - | - |
| 1777997327 | 26.11° C | 36% | 997.5 hPa | 137.92 mm | 2.68 m/s, 184° | - | - |
| 1777997087 | 23.89° C | 35% | 997.5 hPa | 137.92 mm | 2.68 m/s, 173° | - | - |
| 1777996847 | 23.89° C | 35% | 997.5 hPa | 137.92 mm | 2.24 m/s, 189° | - | - |
| 1777996607 | 23.89° C | 35% | 997.5 hPa | 137.92 mm | 2.68 m/s, 201° | - | - |
| 1777996367 | 23.89° C | 34% | 997.6 hPa | 137.92 mm | 3.13 m/s, 183° | - | - |
| 1777996127 | 25° C | 34% | 997.6 hPa | 137.92 mm | 2.68 m/s, 194° | - | - |
| 1777995887 | 25° C | 34% | 997.6 hPa | 137.92 mm | 5.36 m/s, 183° | - | - |
| 1777995647 | 26.11° C | 34% | 997.6 hPa | 137.92 mm | 4.02 m/s, 190° | - | - |
| 1777995407 | 27.22° C | 34% | 997.7 hPa | 137.92 mm | 2.68 m/s, 177° | - | - |
| 1777995167 | 27.22° C | 34% | 997.7 hPa | 137.92 mm | 4.92 m/s, 184° | - | - |
| 1777994687 | 27.22° C | 33% | 997.8 hPa | 137.92 mm | 3.58 m/s, 190° | - | - |
| 1777994207 | 27.78° C | 33% | 997.8 hPa | 137.92 mm | 2.24 m/s, 168° | - | - |
* Rain latest hour (hover to see other rain measurements)
** Current wind speed in m/s (hover to see current wind gust speed)